星链-5601 (STARLINK-5601 )

导读

STARLINK-5601是美国SpaceX公司星链(Starlink)低轨互联网星座中的一员,于2023年3月3日发射入轨。星链计划旨在构建全球覆盖的卫星互联网星座,为全球偏远、基础设施不足区域提供高速低延迟的宽带服务,该卫星设计服役超5年,至今仍在近地轨道运行,助力星链网络的全球覆盖与服务能力拓展。

Basic Information
目录编号:
55744
目录名称:
STARLINK-5601
国际标识:
2023-028D
轨道中心:
EARTH
卫星名称:
星链-5601
卫星全名:
星链-5601 (STARLINK-5601 )
卫星状态:
在轨 (已飞行1289 天)
发射日期:
2023-03-03 UTC
国别 :
美国 (US)
星等 :
--
This satellite is enrolled in the Space Conjunction Data Service (SCDS) and the current flight risk assessment level is: No High Risk
Orbit Information
数据来源 国际轨道数据 AOE轨道数据
星历时间 2026-09-12T09:31:33+0800
12小时前
查看轨道信息
2026-09-10T23:00:00+0800
1天前
查看轨道信息
半长轴 6950.196km 6950.179km
偏心率 0.0002657 0.00026
轨道倾角 69.999° 69.999°
近地点辐角 270.987° 273.137°
升交点赤经 134.685° 138.313°
平近点角 89.098° 249.489°
近地点 570.212km 570.234km
远地点 573.906km 573.85km
周期 96.107分钟 96.107分钟
每日圈数 14.983293 14.983347
Detailed Information
固有亮度:
5
最大亮度:
2.5
卫星平台:
Starlink v1.5
覆盖范围:
全球
运营商:
太空探索技术公司
运营商所在国:
美国
制造商(研发单位):
太空探索技术公司
制造商所在国:
美国
使用方式:
暂无
Satellite Introduction
星链(Starlink)计划是由太空探索技术公司(SpaceX)提出的一个巨型低轨卫星互联网星座项目,计划在2019年至2024年间在太空搭建由约1.2万颗卫星组成的“星链”网络,其中1584颗将部署在地球上空550千米处的近地轨道,并从2020年开始工作。该卫星仍在工作。
2D Orbit Map
3D Orbit Map
Orbit Altitude Analysis Chart
Orbit Inclination Analysis Chart
Orbit Comprehensive Analysis Chart
View Comprehensive Chart
Miss Distance Evolution Trend with All Objects
Collision Probability Evolution Trend with All Objects